| time (UTC) | temp C | wind direction | speed KPH | gust KPH | rain 1hr cm | rain 24hr cm | rain mn cm | humidity % | barometer mb |
| 20260505173513 | 28 | 163 | 0.0 | 3.2 | 0.00 | 0.00 | 0.00 | 27 | 1018.0 |
| 20260505173009 | 28 | 205 | 1.6 | 3.2 | 0.00 | 0.00 | 0.00 | 28 | 1017.8 |
| 20260505172508 | 28 | 166 | 0.0 | 1.6 | 0.00 | 0.00 | 0.00 | 29 | 1017.9 |
| 20260505172008 | 28 | 193 | 1.6 | 4.8 | 0.00 | 0.00 | 0.00 | 27 | 1018.1 |
| 20260505171504 | 28 | 193 | 0.0 | 1.6 | 0.00 | 0.00 | 0.00 | 27 | 1018.1 |
| 20260505171001 | 27 | 199 | 0.0 | 1.6 | 0.00 | 0.00 | 0.00 | 27 | 1018.2 |
| 20260505170458 | 27 | 206 | 1.6 | 1.6 | 0.00 | 0.00 | 0.00 | 28 | 1018.3 |
| 20260505165953 | 27 | 196 | 1.6 | 1.6 | 0.00 | 0.00 | 0.00 | 30 | 1018.4 |
| 20260505165444 | 27 | 184 | 0.0 | 3.2 | 0.00 | 0.00 | 0.00 | 29 | 1018.2 |
| 20260505164939 | 26 | 199 | 0.0 | 3.2 | 0.00 | 0.00 | 0.00 | 28 | 1018.3 |
| 20260505164431 | 26 | 213 | 3.2 | 3.2 | 0.00 | 0.00 | 0.00 | 30 | 1018.6 |
| 20260505163929 | 27 | 272 | 3.2 | 4.8 | 0.00 | 0.00 | 0.00 | 29 | 1018.8 |
| 20260505163427 | 27 | 236 | 3.2 | 3.2 | 0.00 | 0.00 | 0.00 | 29 | 1018.9 |
| 20260505162926 | 27 | 246 | 1.6 | 3.2 | 0.00 | 0.00 | 0.00 | 27 | 1018.9 |
| 20260505162421 | 27 | 261 | 3.2 | 3.2 | 0.00 | 0.00 | 0.00 | 24 | 1018.5 |
| 20260505161918 | 27 | 216 | 1.6 | 3.2 | 0.00 | 0.00 | 0.00 | 27 | 1018.8 |
| 20260505161415 | 26 | 159 | 1.6 | 3.2 | 0.00 | 0.00 | 0.00 | 34 | 1018.8 |
| 20260505160912 | 26 | 172 | 1.6 | 3.2 | 0.00 | 0.00 | 0.00 | 32 | 1018.8 |
| 20260505160410 | 26 | 191 | 1.6 | 1.6 | 0.00 | 0.00 | 0.00 | 32 | 1018.9 |
| 20260505153344 | 25 | 201 | 1.6 | 3.2 | 0.00 | 0.00 | 0.00 | 40 | 1019.2 |
| 20260505152840 | 25 | 219 | 1.6 | 1.6 | 0.00 | 0.00 | 0.00 | 42 | 1019.2 |
| 20260505152337 | 25 | 183 | 0.0 | 1.6 | 0.00 | 0.00 | 0.00 | 42 | 1019.2 |
| 20260505151831 | 24 | 185 | 0.0 | 1.6 | 0.00 | 0.00 | 0.00 | 42 | 1019.4 |
| 20260505151328 | 24 | 183 | 0.0 | 1.6 | 0.00 | 0.00 | 0.00 | 44 | 1019.3 |
| 20260505150825 | 24 | 186 | 0.0 | 1.6 | 0.00 | 0.00 | 0.00 | 47 | 1019.4 |
| 20260505150322 | 23 | 190 | 1.6 | 1.6 | 0.00 | 0.00 | 0.00 | 48 | 1019.1 |
| 20260505140246 | 21 | 185 | 0.0 | 4.8 | 0.00 | 0.00 | 0.00 | 57 | 1019.3 |
| 20260505130210 | 17 | 191 | 0.0 | 0.0 | 0.00 | 0.00 | 0.00 | 70 | 1019.1 |
| 20260505124700 | 16 | 187 | 0.0 | 1.6 | 0.00 | 0.00 | 0.00 | 74 | 1019.3 |
| 20260505124157 | 15 | 188 | 0.0 | 0.0 | 0.00 | 0.00 | 0.00 | 76 | 1019.2 |
| 20260505123653 | 15 | 188 | 0.0 | 0.0 | 0.00 | 0.00 | 0.00 | 77 | 1019.1 |
| 20260505123150 | 14 | 157 | 0.0 | 0.0 | 0.00 | 0.00 | 0.00 | 78 | 1019.1 |
| 20260505122646 | 13 | 155 | 0.0 | 0.0 | 0.00 | 0.00 | 0.00 | 80 | 1019.1 |
| 20260505122143 | 13 | 155 | 0.0 | 0.0 | 0.00 | 0.00 | 0.00 | 81 | 1019.0 |
| 20260505121640 | 12 | 155 | 0.0 | 0.0 | 0.00 | 0.00 | 0.00 | 81 | 1019.0 |
| 20260505121137 | 12 | 152 | 0.0 | 0.0 | 0.00 | 0.00 | 0.00 | 82 | 1018.8 |
| 20260505120633 | 12 | 143 | 0.0 | 0.0 | 0.00 | 0.00 | 0.00 | 82 | 1018.9 |
| 20260505120129 | 12 | 143 | 0.0 | 0.0 | 0.00 | 0.00 | 0.00 | 83 | 1018.8 |
| 20260505115623 | 11 | 143 | 0.0 | 0.0 | 0.00 | 0.00 | 0.00 | 82 | 1018.9 |
| 20260505115121 | 11 | 143 | 0.0 | 0.0 | 0.00 | 0.00 | 0.00 | 82 | 1018.7 |
| 20260505114612 | 11 | 143 | 0.0 | 0.0 | 0.00 | 0.00 | 0.00 | 82 | 1018.6 |
| 20260505114109 | 11 | 143 | 0.0 | 0.0 | 0.00 | 0.00 | 0.00 | 82 | 1018.7 |
| 20260505113605 | 11 | 143 | 0.0 | 0.0 | 0.00 | 0.00 | 0.00 | 82 | 1018.8 |
| 20260505113102 | 11 | 155 | 0.0 | 0.0 | 0.00 | 0.00 | 0.00 | 82 | 1018.7 |
| 20260505112558 | 11 | 155 | 0.0 | 0.0 | 0.00 | 0.00 | 0.00 | 82 | 1018.7 |
| 20260505112056 | 10 | 155 | 0.0 | 0.0 | 0.00 | 0.00 | 0.00 | 82 | 1018.5 |
| 20260505111555 | 10 | 155 | 0.0 | 0.0 | 0.00 | 0.00 | 0.00 | 82 | 1018.6 |
| 20260505111051 | 10 | 155 | 0.0 | 0.0 | 0.00 | 0.00 | 0.00 | 82 | 1018.4 |
| 20260505110548 | 10 | 155 | 0.0 | 0.0 | 0.00 | 0.00 | 0.00 | 81 | 1018.6 |
| 20260505102020 | 11 | 155 | 0.0 | 0.0 | 0.00 | 0.00 | 0.00 | 80 | 1018.2 |
| 20260505101519 | 11 | 155 | 0.0 | 0.0 | 0.00 | 0.00 | 0.00 | 80 | 1018.1 |
| 20260505101015 | 11 | 155 | 0.0 | 0.0 | 0.00 | 0.00 | 0.00 | 79 | 1018.2 |
| 20260505100512 | 11 | 155 | 0.0 | 0.0 | 0.00 | 0.00 | 0.00 | 79 | 1018.2 |
| 20260505100009 | 11 | 155 | 0.0 | 0.0 | 0.00 | 0.00 | 0.00 | 79 | 1018.1 |
| 20260505095505 | 11 | 155 | 0.0 | 0.0 | 0.00 | 0.00 | 0.00 | 80 | 1018.1 |
| 20260505095001 | 11 | 155 | 0.0 | 0.0 | 0.00 | 0.00 | 0.00 | 79 | 1018.1 |
| 20260505094458 | 12 | 155 | 0.0 | 0.0 | 0.00 | 0.00 | 0.00 | 79 | 1017.9 |
| 20260505093954 | 12 | 155 | 0.0 | 0.0 | 0.00 | 0.00 | 0.00 | 78 | 1018.0 |
| 20260505093451 | 12 | 155 | 0.0 | 0.0 | 0.00 | 0.00 | 0.00 | 78 | 1018.0 |
| 20260505092949 | 12 | 155 | 0.0 | 0.0 | 0.00 | 0.00 | 0.00 | 78 | 1017.6 |
| 20260505092446 | 12 | 155 | 0.0 | 0.0 | 0.00 | 0.00 | 0.00 | 78 | 1017.7 |
| 20260505091943 | 12 | 155 | 0.0 | 0.0 | 0.00 | 0.00 | 0.00 | 78 | 1017.7 |
| 20260505091441 | 12 | 155 | 0.0 | 0.0 | 0.00 | 0.00 | 0.00 | 77 | 1017.9 |
| 20260505090939 | 12 | 155 | 0.0 | 0.0 | 0.00 | 0.00 | 0.00 | 77 | 1017.9 |
| 20260505090437 | 12 | 155 | 0.0 | 0.0 | 0.00 | 0.00 | 0.00 | 76 | 1017.8 |
| 20260505085934 | 12 | 155 | 0.0 | 0.0 | 0.00 | 0.00 | 0.00 | 76 | 1017.9 |
| 20260505085431 | 13 | 154 | 0.0 | 0.0 | 0.00 | 0.00 | 0.00 | 75 | 1017.8 |
| 20260505084930 | 13 | 154 | 0.0 | 0.0 | 0.00 | 0.00 | 0.00 | 74 | 1017.7 |
| 20260505084427 | 13 | 154 | 0.0 | 0.0 | 0.00 | 0.00 | 0.00 | 74 | 1017.6 |
| 20260505083925 | 13 | 154 | 0.0 | 0.0 | 0.00 | 0.00 | 0.00 | 73 | 1017.6 |
| 20260505083423 | 13 | 154 | 0.0 | 0.0 | 0.00 | 0.00 | 0.00 | 73 | 1017.8 |
| 20260505082918 | 14 | 162 | 0.0 | 0.0 | 0.00 | 0.00 | 0.00 | 72 | 1017.7 |
| 20260505082414 | 14 | 163 | 0.0 | 0.0 | 0.00 | 0.00 | 0.00 | 72 | 1017.7 |
| 20260505081912 | 14 | 162 | 0.0 | 0.0 | 0.00 | 0.00 | 0.00 | 70 | 1017.7 |
| 20260505081408 | 15 | 163 | 0.0 | 0.0 | 0.00 | 0.00 | 0.00 | 69 | 1017.6 |
| 20260505080905 | 15 | 163 | 0.0 | 0.0 | 0.00 | 0.00 | 0.00 | 68 | 1017.6 |
| 20260505080401 | 15 | 163 | 0.0 | 0.0 | 0.00 | 0.00 | 0.00 | 68 | 1017.5 |
| 20260505075856 | 15 | 163 | 0.0 | 0.0 | 0.00 | 0.00 | 0.00 | 67 | 1017.5 |
| 20260505075353 | 15 | 162 | 0.0 | 0.0 | 0.00 | 0.00 | 0.00 | 67 | 1017.7 |
| 20260505074851 | 15 | 171 | 0.0 | 0.0 | 0.00 | 0.00 | 0.00 | 67 | 1017.7 |
| 20260505074348 | 15 | 186 | 0.0 | 0.0 | 0.00 | 0.00 | 0.00 | 67 | 1017.6 |
| 20260505073845 | 15 | 187 | 0.0 | 1.6 | 0.00 | 0.00 | 0.00 | 67 | 1017.4 |
| 20260505073343 | 15 | 186 | 0.0 | 0.0 | 0.00 | 0.00 | 0.00 | 66 | 1017.3 |
| 20260505072840 | 15 | 186 | 0.0 | 0.0 | 0.00 | 0.00 | 0.00 | 65 | 1017.3 |
| 20260505072336 | 15 | 159 | 0.0 | 0.0 | 0.00 | 0.00 | 0.00 | 65 | 1017.2 |
| 20260505071832 | 15 | 173 | 0.0 | 0.0 | 0.00 | 0.00 | 0.00 | 65 | 1017.5 |
| 20260505071328 | 15 | 173 | 0.0 | 1.6 | 0.00 | 0.00 | 0.00 | 65 | 1017.3 |
| 20260505070827 | 15 | 173 | 0.0 | 0.0 | 0.00 | 0.00 | 0.00 | 65 | 1017.1 |
| 20260505070323 | 15 | 173 | 0.0 | 0.0 | 0.00 | 0.00 | 0.00 | 65 | 1017.3 |
| 20260505065818 | 15 | 173 | 0.0 | 0.0 | 0.00 | 0.00 | 0.00 | 65 | 1017.3 |
| 20260505065315 | 15 | 183 | 0.0 | 1.6 | 0.00 | 0.00 | 0.00 | 64 | 1017.3 |
| 20260505064813 | 15 | 183 | 0.0 | 0.0 | 0.00 | 0.00 | 0.00 | 64 | 1017.3 |
| 20260505064309 | 15 | 183 | 0.0 | 0.0 | 0.00 | 0.00 | 0.00 | 64 | 1017.4 |
| 20260505063808 | 15 | 174 | 0.0 | 0.0 | 0.00 | 0.00 | 0.00 | 64 | 1017.2 |
| 20260505063303 | 15 | 174 | 0.0 | 0.0 | 0.00 | 0.00 | 0.00 | 63 | 1017.3 |
| 20260505062800 | 15 | 175 | 0.0 | 0.0 | 0.00 | 0.00 | 0.00 | 62 | 1017.4 |
| 20260505062258 | 15 | 163 | 0.0 | 0.0 | 0.00 | 0.00 | 0.00 | 63 | 1017.4 |
| 20260505061754 | 15 | 164 | 0.0 | 0.0 | 0.00 | 0.00 | 0.00 | 62 | 1017.4 |
| 20260505061252 | 15 | 178 | 0.0 | 0.0 | 0.00 | 0.00 | 0.00 | 62 | 1017.4 |
| 20260505060749 | 15 | 173 | 0.0 | 0.0 | 0.00 | 0.00 | 0.00 | 63 | 1017.5 |
| 20260505060246 | 15 | 174 | 0.0 | 0.0 | 0.00 | 0.00 | 0.00 | 63 | 1017.5 |
| 20260505055741 | 15 | 174 | 0.0 | 1.6 | 0.00 | 0.00 | 0.00 | 63 | 1017.6 |
| 20260505055233 | 15 | 182 | 0.0 | 1.6 | 0.00 | 0.00 | 0.00 | 61 | 1017.6 |
| 20260505054730 | 15 | 166 | 0.0 | 0.0 | 0.00 | 0.00 | 0.00 | 63 | 1017.5 |
| 20260505054228 | 15 | 166 | 0.0 | 0.0 | 0.00 | 0.00 | 0.00 | 63 | 1017.6 |
| 20260505053726 | 15 | 166 | 0.0 | 0.0 | 0.00 | 0.00 | 0.00 | 63 | 1017.7 |
| 20260505053222 | 15 | 168 | 0.0 | 0.0 | 0.00 | 0.00 | 0.00 | 62 | 1017.7 |
| 20260505052720 | 15 | 168 | 0.0 | 0.0 | 0.00 | 0.00 | 0.00 | 63 | 1017.7 |
| 20260505052216 | 15 | 168 | 0.0 | 0.0 | 0.00 | 0.00 | 0.00 | 61 | 1017.7 |
| 20260505051714 | 15 | 172 | 0.0 | 0.0 | 0.00 | 0.00 | 0.00 | 61 | 1017.7 |
| 20260505051211 | 15 | 172 | 0.0 | 0.0 | 0.00 | 0.00 | 0.00 | 62 | 1017.8 |
| 20260505050709 | 15 | 172 | 0.0 | 0.0 | 0.00 | 0.00 | 0.00 | 62 | 1017.9 |
| 20260505050208 | 15 | 172 | 0.0 | 0.0 | 0.00 | 0.00 | 0.00 | 62 | 1017.9 |
| 20260505041642 | 16 | 172 | 0.0 | 0.0 | 0.00 | 0.00 | 0.00 | 56 | 1018.0 |
| 20260505041140 | 16 | 172 | 0.0 | 0.0 | 0.00 | 0.00 | 0.00 | 55 | 1017.8 |
| 20260505040636 | 16 | 172 | 0.0 | 0.0 | 0.00 | 0.00 | 0.00 | 54 | 1017.6 |
| 20260505040134 | 16 | 172 | 0.0 | 0.0 | 0.00 | 0.00 | 0.00 | 54 | 1017.9 |
| 20260505035630 | 16 | 169 | 0.0 | 1.6 | 0.00 | 0.00 | 0.00 | 54 | 1017.9 |
| 20260505035126 | 16 | 152 | 0.0 | 0.0 | 0.00 | 0.00 | 0.00 | 53 | 1017.9 |
| 20260505034623 | 16 | 152 | 0.0 | 0.0 | 0.00 | 0.00 | 0.00 | 53 | 1018.1 |
| 20260505034120 | 16 | 181 | 0.0 | 0.0 | 0.00 | 0.00 | 0.00 | 51 | 1017.9 |
| 20260505033616 | 16 | 181 | 0.0 | 0.0 | 0.00 | 0.00 | 0.00 | 52 | 1018.1 |
| 20260505033115 | 16 | 181 | 0.0 | 0.0 | 0.00 | 0.00 | 0.00 | 50 | 1018.1 |
| 20260505032612 | 16 | 181 | 0.0 | 0.0 | 0.00 | 0.00 | 0.00 | 50 | 1017.9 |
| 20260505032109 | 16 | 181 | 0.0 | 0.0 | 0.00 | 0.00 | 0.00 | 49 | 1017.7 |
| 20260505031606 | 16 | 181 | 0.0 | 0.0 | 0.00 | 0.00 | 0.00 | 51 | 1018.0 |
| 20260505031102 | 16 | 181 | 0.0 | 0.0 | 0.00 | 0.00 | 0.00 | 54 | 1017.9 |
| 20260505030559 | 16 | 181 | 0.0 | 1.6 | 0.00 | 0.00 | 0.00 | 53 | 1017.7 |
| 20260505030055 | 16 | 181 | 0.0 | 0.0 | 0.00 | 0.00 | 0.00 | 53 | 1017.6 |
| 20260505025551 | 16 | 181 | 0.0 | 0.0 | 0.00 | 0.00 | 0.00 | 53 | 1017.7 |
| 20260505025050 | 16 | 181 | 0.0 | 0.0 | 0.00 | 0.00 | 0.00 | 53 | 1017.7 |
| 20260505024547 | 16 | 181 | 0.0 | 0.0 | 0.00 | 0.00 | 0.00 | 53 | 1017.8 |
| 20260505024044 | 16 | 181 | 0.0 | 0.0 | 0.00 | 0.00 | 0.00 | 55 | 1017.6 |
| 20260505023541 | 16 | 181 | 0.0 | 0.0 | 0.00 | 0.00 | 0.00 | 52 | 1017.7 |
| 20260505023039 | 16 | 181 | 0.0 | 0.0 | 0.00 | 0.00 | 0.00 | 51 | 1017.7 |
| 20260505022536 | 17 | 181 | 0.0 | 0.0 | 0.00 | 0.00 | 0.00 | 52 | 1017.6 |
| 20260505022033 | 17 | 181 | 0.0 | 0.0 | 0.00 | 0.00 | 0.00 | 53 | 1017.5 |
| 20260505021529 | 17 | 181 | 0.0 | 0.0 | 0.00 | 0.00 | 0.00 | 54 | 1017.6 |
| 20260505021026 | 17 | 181 | 0.0 | 0.0 | 0.00 | 0.00 | 0.00 | 54 | 1017.4 |
| 20260505020520 | 17 | 181 | 0.0 | 0.0 | 0.00 | 0.00 | 0.00 | 54 | 1017.5 |
| 20260505020018 | 17 | 181 | 0.0 | 0.0 | 0.00 | 0.00 | 0.00 | 53 | 1017.3 |
| 20260505015515 | 17 | 181 | 0.0 | 0.0 | 0.00 | 0.00 | 0.00 | 50 | 1017.2 |
| 20260505015012 | 17 | 181 | 0.0 | 0.0 | 0.00 | 0.00 | 0.00 | 48 | 1017.3 |
| 20260505014509 | 17 | 181 | 0.0 | 0.0 | 0.00 | 0.00 | 0.00 | 48 | 1017.3 |
| 20260505014006 | 18 | 181 | 0.0 | 0.0 | 0.00 | 0.00 | 0.00 | 50 | 1017.3 |
| 20260505013503 | 18 | 181 | 0.0 | 0.0 | 0.00 | 0.00 | 0.00 | 47 | 1017.3 |
| 20260505013000 | 18 | 181 | 0.0 | 0.0 | 0.00 | 0.00 | 0.00 | 47 | 1017.3 |
| 20260505012458 | 18 | 181 | 0.0 | 0.0 | 0.00 | 0.00 | 0.00 | 49 | 1017.1 |
| 20260505011955 | 18 | 181 | 0.0 | 0.0 | 0.00 | 0.00 | 0.00 | 45 | 1017.1 |
| 20260505011450 | 18 | 181 | 0.0 | 0.0 | 0.00 | 0.00 | 0.00 | 53 | 1017.0 |
| 20260505010947 | 18 | 181 | 0.0 | 0.0 | 0.00 | 0.00 | 0.00 | 48 | 1017.0 |
| 20260505010443 | 18 | 181 | 0.0 | 0.0 | 0.00 | 0.00 | 0.00 | 51 | 1017.0 |
| 20260505005939 | 18 | 181 | 0.0 | 0.0 | 0.00 | 0.00 | 0.00 | 50 | 1016.9 |
| 20260505005436 | 18 | 181 | 0.0 | 0.0 | 0.00 | 0.00 | 0.00 | 43 | 1016.8 |
| 20260505004934 | 18 | 181 | 0.0 | 0.0 | 0.00 | 0.00 | 0.00 | 47 | 1016.7 |
| 20260505004430 | 19 | 181 | 0.0 | 0.0 | 0.00 | 0.00 | 0.00 | 45 | 1016.7 |
| 20260505003927 | 19 | 181 | 0.0 | 0.0 | 0.00 | 0.00 | 0.00 | 47 | 1016.6 |
| 20260505003425 | 19 | 181 | 0.0 | 0.0 | 0.00 | 0.00 | 0.00 | 47 | 1016.4 |
| 20260505002921 | 20 | 181 | 0.0 | 0.0 | 0.00 | 0.00 | 0.00 | 46 | 1016.4 |
| 20260505002417 | 20 | 181 | 0.0 | 0.0 | 0.00 | 0.00 | 0.00 | 44 | 1016.4 |
| 20260505001916 | 20 | 181 | 0.0 | 0.0 | 0.00 | 0.00 | 0.00 | 40 | 1016.3 |
| 20260505001413 | 20 | 181 | 0.0 | 0.0 | 0.00 | 0.00 | 0.00 | 41 | 1016.5 |
| 20260505000910 | 20 | 181 | 0.0 | 0.0 | 0.00 | 0.00 | 0.00 | 42 | 1016.4 |
| 20260505000408 | 21 | 181 | 0.0 | 0.0 | 0.00 | 0.00 | 0.00 | 38 | 1016.1 |
| 20260504235904 | 21 | 181 | 0.0 | 0.0 | 0.00 | 0.00 | 0.00 | 36 | 1016.2 |
| 20260504235401 | 21 | 181 | 0.0 | 0.0 | 0.00 | 0.00 | 0.00 | 41 | 1016.2 |
| 20260504234857 | 21 | 181 | 0.0 | 0.0 | 0.00 | 0.00 | 0.00 | 36 | 1016.0 |
| 20260504234355 | 22 | 181 | 0.0 | 0.0 | 0.00 | 0.00 | 0.00 | 31 | 1015.9 |
| 20260504233851 | 22 | 181 | 0.0 | 0.0 | 0.00 | 0.00 | 0.00 | 30 | 1015.8 |
| 20260504233347 | 22 | 181 | 0.0 | 0.0 | 0.00 | 0.00 | 0.00 | 30 | 1015.9 |
| 20260504232844 | 22 | 181 | 0.0 | 0.0 | 0.00 | 0.00 | 0.00 | 29 | 1015.9 |
| 20260504232341 | 22 | 181 | 0.0 | 0.0 | 0.00 | 0.00 | 0.00 | 28 | 1015.8 |
| 20260504231838 | 23 | 181 | 0.0 | 0.0 | 0.00 | 0.00 | 0.00 | 28 | 1015.9 |
| 20260504231334 | 23 | 181 | 0.0 | 0.0 | 0.00 | 0.00 | 0.00 | 28 | 1015.8 |
| 20260504230830 | 23 | 181 | 0.0 | 0.0 | 0.00 | 0.00 | 0.00 | 27 | 1016.0 |
| 20260504230329 | 23 | 181 | 0.0 | 0.0 | 0.00 | 0.00 | 0.00 | 31 | 1015.9 |
| 20260504225827 | 23 | 181 | 0.0 | 0.0 | 0.00 | 0.00 | 0.00 | 27 | 1015.9 |
| 20260504225323 | 24 | 181 | 0.0 | 0.0 | 0.00 | 0.00 | 0.00 | 25 | 1015.8 |
| 20260504224821 | 24 | 181 | 0.0 | 0.0 | 0.00 | 0.00 | 0.00 | 30 | 1016.0 |
| 20260504224317 | 24 | 189 | 0.0 | 0.0 | 0.00 | 0.00 | 0.00 | 31 | 1016.0 |
| 20260504223814 | 25 | 188 | 0.0 | 0.0 | 0.00 | 0.00 | 0.00 | 30 | 1016.1 |
| 20260504223309 | 25 | 189 | 0.0 | 1.6 | 0.00 | 0.00 | 0.00 | 25 | 1016.1 |
| 20260504222807 | 25 | 192 | 0.0 | 0.0 | 0.00 | 0.00 | 0.00 | 26 | 1016.1 |
| 20260504222304 | 25 | 192 | 0.0 | 0.0 | 0.00 | 0.00 | 0.00 | 26 | 1016.0 |
| 20260504221801 | 25 | 185 | 0.0 | 1.6 | 0.00 | 0.00 | 0.00 | 24 | 1016.0 |
| 20260504221258 | 25 | 190 | 0.0 | 0.0 | 0.00 | 0.00 | 0.00 | 22 | 1016.1 |
| 20260504220755 | 25 | 190 | 0.0 | 0.0 | 0.00 | 0.00 | 0.00 | 25 | 1016.0 |
| 20260504220252 | 26 | 190 | 0.0 | 0.0 | 0.00 | 0.00 | 0.00 | 24 | 1016.1 |
| 20260504215750 | 26 | 163 | 0.0 | 1.6 | 0.00 | 0.00 | 0.00 | 24 | 1016.1 |
| 20260504215246 | 26 | 175 | 0.0 | 0.0 | 0.00 | 0.00 | 0.00 | 23 | 1015.9 |
| 20260504214741 | 26 | 210 | 1.6 | 3.2 | 0.00 | 0.00 | 0.00 | 19 | 1015.9 |
| 20260504214238 | 26 | 184 | 0.0 | 0.0 | 0.00 | 0.00 | 0.00 | 21 | 1016.0 |
| 20260504213735 | 26 | 194 | 1.6 | 1.6 | 0.00 | 0.00 | 0.00 | 22 | 1016.0 |
| 20260504213231 | 26 | 109 | 1.6 | 3.2 | 0.00 | 0.00 | 0.00 | 20 | 1016.0 |
| 20260504212728 | 26 | 166 | 1.6 | 1.6 | 0.00 | 0.00 | 0.00 | 22 | 1015.9 |
| 20260504212225 | 26 | 176 | 0.0 | 1.6 | 0.00 | 0.00 | 0.00 | 20 | 1015.8 |
| 20260504211723 | 26 | 178 | 0.0 | 3.2 | 0.00 | 0.00 | 0.00 | 21 | 1015.7 |
| 20260504211219 | 26 | 184 | 0.0 | 1.6 | 0.00 | 0.00 | 0.00 | 22 | 1015.9 |
| 20260504210716 | 26 | 184 | 0.0 | 4.8 | 0.00 | 0.00 | 0.00 | 22 | 1015.8 |
| 20260504210213 | 26 | 178 | 0.0 | 3.2 | 0.00 | 0.00 | 0.00 | 21 | 1015.7 |
| 20260504205710 | 27 | 175 | 0.0 | 1.6 | 0.00 | 0.00 | 0.00 | 22 | 1015.8 |
| 20260504205207 | 27 | 168 | 1.6 | 1.6 | 0.00 | 0.00 | 0.00 | 19 | 1016.1 |
| 20260504204706 | 26 | 189 | 0.0 | 3.2 | 0.00 | 0.00 | 0.00 | 20 | 1016.1 |
| 20260504204204 | 26 | 184 | 1.6 | 1.6 | 0.00 | 0.00 | 0.00 | 19 | 1016.1 |
| 20260504203703 | 27 | 180 | 0.0 | 1.6 | 0.00 | 0.00 | 0.00 | 20 | 1015.9 |
| 20260504203201 | 27 | 151 | 0.0 | 1.6 | 0.00 | 0.00 | 0.00 | 21 | 1016.0 |
| 20260504202700 | 27 | 182 | 0.0 | 1.6 | 0.00 | 0.00 | 0.00 | 22 | 1016.4 |
| 20260504202157 | 26 | 170 | 0.0 | 0.0 | 0.00 | 0.00 | 0.00 | 17 | 1016.2 |
| 20260504201654 | 26 | 197 | 1.6 | 1.6 | 0.00 | 0.00 | 0.00 | 18 | 1016.3 |
| 20260504201152 | 27 | 207 | 1.6 | 1.6 | 0.00 | 0.00 | 0.00 | 19 | 1016.4 |
| 20260504200649 | 26 | 184 | 0.0 | 1.6 | 0.00 | 0.00 | 0.00 | 20 | 1016.4 |
| 20260504200145 | 26 | 192 | 1.6 | 3.2 | 0.00 | 0.00 | 0.00 | 20 | 1016.5 |
| 20260504195641 | 26 | 217 | 1.6 | 1.6 | 0.00 | 0.00 | 0.00 | 21 | 1016.6 |
| 20260504195137 | 26 | 185 | 0.0 | 1.6 | 0.00 | 0.00 | 0.00 | 22 | 1016.7 |
| 20260504194634 | 27 | 188 | 0.0 | 3.2 | 0.00 | 0.00 | 0.00 | 19 | 1016.9 |
| 20260504194130 | 27 | 175 | 0.0 | 1.6 | 0.00 | 0.00 | 0.00 | 21 | 1016.8 |
| 20260504193627 | 27 | 147 | 0.0 | 1.6 | 0.00 | 0.00 | 0.00 | 21 | 1016.9 |
| 20260504193125 | 26 | 180 | 1.6 | 3.2 | 0.00 | 0.00 | 0.00 | 23 | 1017.0 |
| 20260504192623 | 27 | 182 | 0.0 | 1.6 | 0.00 | 0.00 | 0.00 | 19 | 1017.1 |
| 20260504192121 | 27 | 160 | 1.6 | 1.6 | 0.00 | 0.00 | 0.00 | 21 | 1017.1 |
| 20260504191619 | 27 | 122 | 1.6 | 1.6 | 0.00 | 0.00 | 0.00 | 23 | 1017.3 |
| 20260504191115 | 27 | 174 | 1.6 | 3.2 | 0.00 | 0.00 | 0.00 | 22 | 1017.2 |
| 20260504190611 | 27 | 182 | 0.0 | 4.8 | 0.00 | 0.00 | 0.00 | 21 | 1017.2 |
| 20260504190108 | 27 | 215 | 1.6 | 1.6 | 0.00 | 0.00 | 0.00 | 22 | 1017.2 |
| 20260504185604 | 27 | 188 | 0.0 | 1.6 | 0.00 | 0.00 | 0.00 | 22 | 1017.3 |
| 20260504185101 | 27 | 167 | 1.6 | 3.2 | 0.00 | 0.00 | 0.00 | 22 | 1017.6 |
| 20260504184556 | 27 | 257 | 3.2 | 3.2 | 0.00 | 0.00 | 0.00 | 20 | 1017.4 |
| 20260504184052 | 28 | 159 | 0.0 | 1.6 | 0.00 | 0.00 | 0.00 | 20 | 1017.4 |
| 20260504183549 | 27 | 170 | 0.0 | 1.6 | 0.00 | 0.00 | 0.00 | 21 | 1017.5 |
| 20260504183047 | 27 | 163 | 1.6 | 3.2 | 0.00 | 0.00 | 0.00 | 22 | 1017.6 |
| 20260504182544 | 27 | 196 | 0.0 | 1.6 | 0.00 | 0.00 | 0.00 | 23 | 1017.7 |
| 20260504182042 | 27 | 195 | 1.6 | 1.6 | 0.00 | 0.00 | 0.00 | 22 | 1017.8 |
| 20260504181539 | 27 | 255 | 3.2 | 3.2 | 0.00 | 0.00 | 0.00 | 22 | 1017.8 |
| 20260504181037 | 27 | 206 | 1.6 | 1.6 | 0.00 | 0.00 | 0.00 | 23 | 1017.8 |
| 20260504180536 | 27 | 199 | 1.6 | 3.2 | 0.00 | 0.00 | 0.00 | 25 | 1017.9 |
| 20260504180034 | 27 | 201 | 1.6 | 3.2 | 0.00 | 0.00 | 0.00 | 24 | 1018.1 |
| 20260504175531 | 27 | 195 | 0.0 | 1.6 | 0.00 | 0.00 | 0.00 | 24 | 1018.0 |
| 20260504175028 | 27 | 176 | 0.0 | 1.6 | 0.00 | 0.00 | 0.00 | 25 | 1018.1 |
| 20260504174526 | 26 | 124 | 1.6 | 1.6 | 0.00 | 0.00 | 0.00 | 24 | 1018.3 |
| 20260504174022 | 26 | 192 | 0.0 | 1.6 | 0.00 | 0.00 | 0.00 | 23 | 1018.4 |